Time,TemperatureF,DewpointF,PressureIn,WindDirection,WindDirectionDegrees,WindSpeedMPH,WindSpeedGustMPH,Humidity,HourlyPrecipIn,Conditions,Clouds,dailyrainin,SoftwareType,DateUTC
2013-09-08 00:13:00,70.0,70.0,-100.00,NE,35,2.0,4.0,99,0.00,,,-99.99,,2013-09-08 05:13:00,
2013-09-08 00:43:00,69.0,69.0,-100.00,NE,45,2.0,2.0,99,0.00,,,-99.99,,2013-09-08 05:43:00,
2013-09-08 01:21:00,69.0,69.0,-100.00,NE,45,1.0,2.0,99,0.00,,,-99.99,,2013-09-08 06:21:00,
2013-09-08 02:12:00,69.0,69.0,-100.00,NE,35,1.0,2.0,99,0.00,,,-99.99,,2013-09-08 07:12:00,
2013-09-08 02:23:00,68.0,68.0,-100.00,ENE,70,2.0,2.0,99,0.00,,,-99.99,,2013-09-08 07:23:00,
2013-09-08 02:42:00,69.0,69.0,-100.00,ENE,70,2.0,3.0,99,0.00,,,-99.99,,2013-09-08 07:42:00,
2013-09-08 03:22:00,68.0,68.0,-100.00,ENE,70,3.0,4.0,99,0.00,,,-99.99,,2013-09-08 08:22:00,
2013-09-08 04:11:00,67.0,67.0,-100.00,NNE,25,1.0,3.0,99,0.00,,,-99.99,,2013-09-08 09:11:00,
2013-09-08 04:22:00,66.0,66.0,-100.00,NW,325,0.0,1.0,99,0.00,,,-99.99,,2013-09-08 09:22:00,
2013-09-08 04:43:00,67.0,67.0,-100.00,NE,35,1.0,1.0,99,0.00,,,-99.99,,2013-09-08 09:43:00,
2013-09-08 05:23:00,67.0,67.0,-100.00,ESE,115,0.0,3.0,99,0.00,,,-99.99,,2013-09-08 10:23:00,
2013-09-08 06:12:00,68.0,68.0,-100.00,NNE,15,1.0,2.0,99,0.00,,,-99.99,,2013-09-08 11:12:00,
2013-09-08 06:21:00,68.0,68.0,-100.00,North,5,2.0,3.0,99,0.00,,,-99.99,,2013-09-08 11:21:00,
2013-09-08 06:42:00,67.0,67.0,-100.00,East,90,2.0,3.0,99,0.00,,,-99.99,,2013-09-08 11:42:00,
2013-09-08 07:42:00,68.0,68.0,-100.00,East,90,2.0,3.0,99,0.00,,,-99.99,,2013-09-08 12:42:00,
2013-09-08 09:11:00,72.0,72.0,-100.00,ESE,120,4.0,8.0,99,0.00,,,-99.99,,2013-09-08 14:11:00,
2013-09-08 09:22:00,72.0,72.0,-100.00,East,100,4.0,9.0,99,0.00,,,-99.99,,2013-09-08 14:22:00,
2013-09-08 09:42:00,73.0,73.0,-100.00,ESE,110,5.0,11.0,99,0.00,,,-99.99,,2013-09-08 14:42:00,
2013-09-08 11:23:00,80.0,74.0,-100.00,SE,135,9.0,15.0,82,0.00,,,-99.99,,2013-09-08 16:23:00,
2013-09-08 11:43:00,80.0,74.0,-100.00,SE,145,11.0,14.0,80,0.00,,,-99.99,,2013-09-08 16:43:00,
2013-09-08 12:12:00,82.0,73.0,-100.00,SE,135,11.0,16.0,75,0.00,,,-99.99,,2013-09-08 17:12:00,
2013-09-08 12:23:00,82.0,73.0,-100.00,SE,145,12.0,18.0,75,0.00,,,-99.99,,2013-09-08 17:23:00,
2013-09-08 12:43:00,82.0,73.0,-100.00,SE,140,10.0,16.0,75,0.00,,,-99.99,,2013-09-08 17:43:00,
2013-09-08 13:22:00,82.0,74.0,-100.00,SE,125,9.0,16.0,77,0.00,,,-99.99,,2013-09-08 18:22:00,
2013-09-08 14:12:00,82.0,73.0,-100.00,SSE,155,6.0,14.0,75,0.00,,,-99.99,,2013-09-08 19:12:00,
2013-09-08 14:22:00,83.0,74.0,-100.00,ESE,115,4.0,12.0,74,0.00,,,-99.99,,2013-09-08 19:22:00,
2013-09-08 14:42:00,82.0,74.0,-100.00,SE,140,9.0,13.0,74,0.00,,,-99.99,,2013-09-08 19:42:00,
2013-09-08 15:11:00,84.0,74.0,-100.00,SE,140,11.0,15.0,71,0.00,,,-99.99,,2013-09-08 20:11:00,
2013-09-08 15:42:00,85.0,74.0,-100.00,SSE,150,5.0,13.0,68,0.00,,,-99.99,,2013-09-08 20:42:00,
2013-09-08 16:22:00,86.0,74.0,-100.00,SE,145,8.0,11.0,67,0.00,,,-99.99,,2013-09-08 21:22:00,
2013-09-08 17:13:00,87.0,74.0,-100.00,SSW,205,5.0,10.0,66,0.00,,,-99.99,,2013-09-08 22:13:00,
2013-09-08 17:24:00,87.0,74.0,-100.00,South,190,4.0,8.0,65,0.00,,,-99.99,,2013-09-08 22:24:00,
2013-09-08 17:33:00,87.0,74.0,-100.00,South,190,4.0,8.0,65,0.00,,,-99.99,,2013-09-08 22:33:00,
2013-09-08 17:43:00,87.0,74.0,-100.00,South,190,4.0,8.0,65,0.00,,,-99.99,,2013-09-08 22:43:00,
2013-09-08 19:22:00,85.0,74.0,-100.00,SE,140,2.0,6.0,71,0.00,,,-99.99,,2013-09-09 00:22:00,
2013-09-08 19:42:00,84.0,75.0,-100.00,South,185,0.0,5.0,74,0.00,,,-99.99,,2013-09-09 00:42:00,
2013-09-08 20:12:00,80.0,75.0,-100.00,SW,235,1.0,5.0,82,0.00,,,-99.99,,2013-09-09 01:12:00,
2013-09-08 20:21:00,79.0,75.0,-100.00,SW,230,1.0,4.0,87,0.00,,,-99.99,,2013-09-09 01:21:00,
2013-09-08 20:42:00,78.0,75.0,-100.00,SE,145,1.0,6.0,89,0.00,,,-99.99,,2013-09-09 01:42:00,
2013-09-08 21:42:00,75.0,74.0,-100.00,SE,135,4.0,6.0,97,0.00,,,-99.99,,2013-09-09 02:42:00,
2013-09-08 22:22:00,74.0,74.0,-100.00,ESE,110,1.0,4.0,98,0.00,,,-99.99,,2013-09-09 03:22:00,
2013-09-08 22:44:00,74.0,74.0,-100.00,ESE,115,4.0,7.0,99,0.00,,,-99.99,,2013-09-09 03:44:00,
2013-09-08 23:43:00,73.0,73.0,-100.00,South,170,1.0,4.0,99,0.00,,,-99.99,,2013-09-09 04:43:00,